Weather History for Huron, SD

Change the Weather History Date:

Monday, February 18, 2013

  Actual Average Record
Temperature  
Mean Temperature 21 °F 22 °F  
Max Temperature 36 °F 33 °F 70 °F (1930)
Min Temperature 5 °F 12 °F -25 °F (1967)
Degree Days  
Heating Degree Days 44 43  
Month to date heating degree days 752 811  
Since 1 July heating degree days 5319 5428  
Cooling Degree Days 0 0  
Month to date cooling degree days 0 0  
Year to date cooling degree days 0 0  
Moisture  
Dew Point 13 °F    
Average Humidity 74    
Maximum Humidity 85    
Minimum Humidity 59    
Precipitation  
Precipitation T in 0.02 in 0.61 in (1962)
Month to date precipitation 0.91 0.35  
Year to date precipitation 1.19 0.85  
Snow  
Snow T in 0.30 in 6.60 in (1962)
Month to date snowfall 10.3 4.5  
Since 1 July snowfall 29.7 28.1  
Snow Depth 7.00 in    
Sea Level Pressure  
Sea Level Pressure 29.92 in    
Wind  
Wind Speed 27 mph (NW)    
Max Wind Speed 39 mph    
Max Gust Speed 47 mph    
Visibility 7 miles    
Events Snow    
T = Trace of Precipitation, MM = Missing Value Source: NWS Daily Summary

Daily Weather History Graph

Daily Weather History Graph

Search for Another Location

Airport:

Trip Planner

Search our weather history database for the weather conditions in past years. The results will help you decide how hot, cold, wet, or windy it might be!

Date:

Astronomy

Feb. 18, 2013 Rise Set
Actual Time 7:27 AM CST 6:06 PM CST
Civil Twilight 6:58 AM CST 6:36 PM CST
Nautical Twilight 6:24 AM CST 7:10 PM CST
Astronomical Twilight 5:50 AM CST 7:43 PM CST
Moon 11:46 AM CST (2/18) 2:15 AM CST (2/18)
Length of Visible Light 11h 38m
Length of Day
10h 38m
First Quarter, 58% of the Moon is Illuminated
Feb 18
First Quarter
Feb 25
Full
Mar 4
Last Quarter
Mar 11
New
Mar 19
First Quarter

Hourly Weather History & Observations

Time (CST) Temp. Windchill Dew Point Humidity Pressure Visibility Wind Dir Wind Speed Gust Speed Precip Events Conditions
12:55 AM 35.1 °F 25.9 °F 30.0 °F 82% 29.65 in 10.0 mi WNW 13.8 mph - N/A   Partly Cloudy
1:55 AM 36.0 °F 26.3 °F 30.9 °F 82% 29.64 in 10.0 mi WNW 16.1 mph - N/A   Overcast
2:42 AM 35.6 °F 25.9 °F 30.2 °F 81% 29.61 in 10.0 mi WNW 16.1 mph - N/A   Overcast
2:55 AM 36.0 °F 26.0 °F 30.9 °F 82% 29.65 in 10.0 mi WNW 17.3 mph - N/A   Overcast
3:55 AM 35.1 °F 23.3 °F 30.9 °F 85% 29.67 in 10.0 mi WNW 23.0 mph - N/A   Overcast
4:02 AM 35.6 °F 24.0 °F 30.2 °F 81% 29.64 in 10.0 mi WNW 23.0 mph - N/A   Mostly Cloudy
4:50 AM 33.8 °F 20.8 °F 28.4 °F 81% 29.65 in 10.0 mi NW 26.5 mph 36.8 mph N/A   Overcast
4:55 AM 34.0 °F 20.8 °F 28.9 °F 82% 29.69 in 10.0 mi NW 27.6 mph 36.8 mph N/A   Overcast
5:55 AM 28.9 °F 12.5 °F 21.9 °F 75% 29.72 in 10.0 mi NNW 34.5 mph 40.3 mph N/A   Mostly Cloudy
6:55 AM 25.0 °F 9.5 °F 19.0 °F 78% 29.78 in 10.0 mi NNW 24.2 mph 34.5 mph N/A   Overcast
7:55 AM 21.0 °F 3.3 °F 15.1 °F 78% 29.84 in 10.0 mi NNW 27.6 mph 38.0 mph 0.00 in   Mostly Cloudy
8:55 AM 19.9 °F 1.8 °F 12.9 °F 74% 29.88 in 10.0 mi NNW 27.6 mph 34.5 mph N/A   Mostly Cloudy
9:03 AM 19.4 °F 1.8 °F 12.2 °F 74% 29.83 in 10.0 mi NW 25.3 mph 35.7 mph N/A   Scattered Clouds
9:55 AM 19.9 °F 1.0 °F 12.9 °F 74% 29.90 in 10.0 mi NNW 31.1 mph 36.8 mph N/A   Mostly Cloudy
10:55 AM 19.0 °F -0.3 °F 10.9 °F 71% 29.94 in 10.0 mi NNW 31.1 mph 43.7 mph 0.00 in   Mostly Cloudy
11:55 AM 19.0 °F 1.3 °F 10.9 °F 71% 29.97 in 4.0 mi NNW 25.3 mph 35.7 mph 0.00 in Snow Light Snow
12:03 PM 19.4 °F 0.8 °F 12.2 °F 74% 29.91 in 1.8 mi NNW 28.8 mph 39.1 mph 0.00 in Snow Light Snow
12:38 PM 17.6 °F -1.9 °F 12.2 °F 79% 29.91 in 2.5 mi NNW 29.9 mph 40.3 mph 0.00 in Snow Light Snow
12:55 PM 18.0 °F -1.1 °F 12.9 °F 81% 29.96 in 0.5 mi NNW 28.8 mph 39.1 mph 0.00 in Snow Snow
1:03 PM 17.6 °F -1.9 °F 12.2 °F 79% 29.92 in 0.5 mi NNW 29.9 mph 39.1 mph 0.00 in Snow Snow
1:08 PM 17.6 °F -1.3 °F 12.2 °F 79% 29.92 in 1.0 mi NNW 27.6 mph 38.0 mph 0.00 in Snow Light Snow
1:19 PM 17.6 °F -1.3 °F 12.2 °F 79% 29.92 in 0.8 mi NNW 27.6 mph 35.7 mph 0.00 in Snow Light Snow
1:46 PM 17.6 °F -2.8 °F 10.4 °F 73% 29.92 in 1.0 mi NNW 33.4 mph 38.0 mph 0.00 in Snow Light Snow
1:55 PM 17.1 °F -3.0 °F 10.9 °F 77% 29.98 in 0.8 mi NNW 31.1 mph 40.3 mph 0.00 in Snow Light Snow
2:06 PM 17.6 °F -1.3 °F 10.4 °F 73% 29.93 in 1.0 mi NNW 27.6 mph 33.4 mph 0.00 in Snow Light Snow
2:14 PM 17.6 °F -1.0 °F 12.2 °F 79% 29.94 in 0.8 mi NNW 26.5 mph 34.5 mph 0.00 in Snow Light Snow
2:35 PM 15.8 °F -4.7 °F 10.4 °F 79% 29.94 in 1.2 mi NNW 31.1 mph 38.0 mph 0.00 in Snow Light Snow
2:48 PM 17.6 °F -1.9 °F 10.4 °F 73% 29.95 in 3.0 mi NNW 29.9 mph 40.3 mph 0.00 in Snow Light Snow
2:55 PM 17.1 °F -3.5 °F 10.0 °F 74% 30.01 in 1.8 mi NW 33.4 mph 39.1 mph 0.00 in Snow Light Snow
3:03 PM 17.6 °F -1.0 °F 8.6 °F 68% 29.96 in 3.0 mi NNW 26.5 mph 39.1 mph 0.00 in Snow Light Snow
3:55 PM 17.1 °F -1.7 °F 9.0 °F 71% 30.02 in 10.0 mi NNW 26.5 mph 33.4 mph 0.00 in   Mostly Cloudy
4:55 PM 15.1 °F -4.4 °F 7.0 °F 70% 30.05 in 10.0 mi NNW 26.5 mph 34.5 mph 0.00 in   Overcast
5:55 PM 12.9 °F -4.9 °F 7.0 °F 77% 30.10 in 8.0 mi North 19.6 mph 29.9 mph N/A   Overcast
6:55 PM 10.9 °F -8.3 °F 3.0 °F 70% 30.12 in 10.0 mi NNW 21.9 mph 28.8 mph 0.00 in   Overcast
7:39 PM 8.6 °F -11.9 °F 1.4 °F 73% 30.07 in 10.0 mi NNW 23.0 mph - N/A   Scattered Clouds
7:55 PM 8.1 °F -12.6 °F 1.9 °F 76% 30.15 in 10.0 mi NNW 23.0 mph - N/A   Clear
8:55 PM 7.0 °F -16.0 °F -0.0 °F 73% 30.17 in 10.0 mi NNW 28.8 mph 32.2 mph N/A   Clear
9:47 PM 6.8 °F -15.5 °F -0.4 °F 72% 30.10 in 10.0 mi NW 26.5 mph 33.4 mph N/A   Mostly Cloudy
9:55 PM 6.1 °F -16.5 °F -0.9 °F 73% 30.18 in 10.0 mi NW 26.5 mph - N/A   Mostly Cloudy
10:55 PM 6.1 °F -17.6 °F -0.9 °F 73% 30.19 in 10.0 mi NW 29.9 mph 38.0 mph N/A   Overcast
11:55 PM 5.0 °F -17.9 °F -2.0 °F 73% 30.22 in 10.0 mi NNW 26.5 mph 35.7 mph N/A   Overcast